Location: Janeiro
(34.9957°N, 76.7652°W)
Time: 13:37:42
(UTC+00:00)

Aureole 3 Rocket - Pass Details

Date: 14 December 2019
Orbit: 398 x 1741 km, 82.5° (Epoch: 28 January)

Event Time Altitude Azimuth Distance (km) Brightness Sun altitude
Exits shadow 23:28:33 36° 133° (SE) 717 3.1 -18.3°
Drops below altitude 10° 23:31:01 10° 159° (SSE) 1,669 5.2 -18.8°
Sets 23:33:23 0° 165° (SSE) 2,694 6.4 -19.2°
